Location: ??????????
(54.7560°N, 39.1389°E)
Time: 14:50:39
(UTC+00:00)

Cosmos 2058 Rocket - Pass Details

Date: 19 May 2025
Orbit: 604 x 634 km, 82.5° (Epoch: 20 June)

Event Time Altitude Azimuth Distance (km) Brightness Sun altitude
Rises 19:01:48 0° 210° (SSW) 2,920 6.2 -9.7°
Reaches altitude 10° 19:04:08 10° 217° (SW) 2,014 5.5 -9.9°
Maximum altitude 19:08:23 42° 289° (WNW) 905 4.4 -10.2°
Drops below altitude 10° 19:12:39 10° 1° (N) 2,016 6.7 -10.5°
Sets 19:14:59 0° 8° (N) 2,922 7.4 -10.7°
